Location: Saint-Denis
(20.8800°S, 55.4481°E)
Time: 19:10:08
(UTC+04:00)

N. Korean satellite - Visible Passes

Search period start: 30 January 2023 00:00
Search period end: 09 February 2023 00:00
Orbit: 407 x 444 km, 97.3° (Epoch: 29 January)

Date Brightness Start Highest point End Pass type
(mag) Time Alt. Az. Time Alt. Az. Time Alt. Az.
30 Jan 7.8 04:48:38 10° NNE 04:51:46 41° ESE 04:54:59 10° S visible
01 Feb 7.1 04:55:55 10° NNE 04:59:10 56° ESE 05:02:30 10° S visible
02 Feb 9.9 04:15:44 10° E 04:16:55 11° ESE 04:18:07 10° SE visible
03 Feb 6.5 05:03:00 10° NNE 05:06:20 77° ESE 05:09:43 10° S visible
04 Feb 9.7 04:21:59 10° ENE 04:23:55 15° ESE 04:25:52 10° SE visible
05 Feb 6.3 05:09:55 10° N 05:13:14 80° W 05:16:38 10° SSW visible
06 Feb 9.3 04:28:17 10° ENE 04:30:40 18° ESE 04:33:05 10° SSE visible
07 Feb 6.4 05:16:36 10° N 05:19:53 60° W 05:23:14 10° SSW visible
08 Feb 9.0 04:34:28 10° NE 04:37:10 23° ESE 04:39:53 10° SSE visible
